Back to catalog

STARLINK-5304

AliveCommunicationsVLEO
NORAD 54843·PAYLOAD·🇺🇸 United States

Launched Dec 28, 2022 from Cape Canaveral Space Force Station

Loading…

Next Passes (next 24 hours)

TLE

FreshSource: CelesTrak SupGP

Epoch: Sep 15, 2026, 01:47 UTC

1 54843C 22177Z   26258.07479167  .00038192  00000+0  13834-2 0  2588
2 54843  43.0024 143.3969 0001567 276.9139  94.1586 15.27557458    13

Track STARLINK-5304 in real time with AllMySat

Download on the App Store